Le nostre stazioni meteo in Italia

Pubblicità
Il mio iltempo24.it
Threave, Gran Bretagna (99090): Temperatura & dewpoint: 10.02.2019 06:00:00 - 16.02.2019 06:00:00 (GMT)Threave, Gran Bretagna (99090): Temperatura -20cm & Temperatura -100cm: 10.02.2019 06:00:00 - 16.02.2019 06:00:00 (GMT)Threave, Gran Bretagna (99090): precipitazioni: 10.02.2019 06:00:00 - 16.02.2019 06:00:00 (GMT)
Data & Tempo tt [°C] td [°C] tt -20cm [°C] tt -100cm [°C] rr [mm]
16.02.2019 06:00:00 9,0 5,9 - - 0,0
16.02.2019 05:00:00 9,2 5,6 - - 0,0
16.02.2019 04:00:00 9,4 5,9 - - 0,0
16.02.2019 03:00:00 9,3 6,6 - - 0,0
16.02.2019 02:00:00 9,3 6,7 - - 0,0
16.02.2019 01:00:00 9,4 7,4 - - 0,0
16.02.2019 00:00:00 9,2 7,8 - - 0,0
15.02.2019 23:00:00 9,1 8,0 - - 0,0
15.02.2019 22:00:00 9,9 6,2 - - 0,0
15.02.2019 21:00:00 10,3 5,9 - - 0,0
15.02.2019 20:00:00 9,8 5,4 - - 0,0
15.02.2019 19:00:00 9,0 4,6 - - 0,0
15.02.2019 18:00:00 9,2 3,7 - - 0,0
15.02.2019 17:00:00 8,9 3,0 - - 0,0
15.02.2019 16:00:00 8,8 3,3 - - 0,0
15.02.2019 15:00:00 8,6 2,9 - - 0,0
15.02.2019 14:00:00 9,2 2,9 - - 0,0
15.02.2019 13:00:00 9,1 3,6 - - 0,0
15.02.2019 12:00:00 9,1 2,9 - - 0,0
15.02.2019 11:00:00 8,9 3,1 - - 0,0
15.02.2019 10:00:00 6,6 3,2 - - 0,0
15.02.2019 09:00:00 5,2 3,0 5,5 6,0 0,0
15.02.2019 08:00:00 4,1 2,9 - - 0,0
15.02.2019 07:00:00 5,0 3,1 - - 0,0
15.02.2019 06:00:00 4,3 2,5 - - 0,0
15.02.2019 05:00:00 5,0 3,5 - - 0,0
15.02.2019 04:00:00 5,7 3,8 - - 0,0
15.02.2019 03:00:00 5,3 3,6 - - 0,0
15.02.2019 02:00:00 5,9 3,5 - - 0,0
15.02.2019 01:00:00 6,6 3,3 - - 0,0
15.02.2019 00:00:00 6,4 3,4 - - 0,0
14.02.2019 23:00:00 2,3 1,1 - - 0,0
14.02.2019 22:00:00 1,8 1,3 - - 0,0
14.02.2019 21:00:00 1,9 1,4 - - 0,0
14.02.2019 20:00:00 2,1 1,2 - - 0,0
14.02.2019 19:00:00 3,0 2,1 - - 0,0
14.02.2019 18:00:00 4,5 2,8 - - 0,0
14.02.2019 17:00:00 5,9 3,7 - - 0,0
14.02.2019 16:00:00 6,7 3,2 - - 0,0
14.02.2019 15:00:00 7,3 3,6 - - 0,0
14.02.2019 14:00:00 8,5 4,4 - - 0,0
14.02.2019 13:00:00 7,6 5,3 - - 0,0
14.02.2019 12:00:00 7,9 5,6 - - 0,0
14.02.2019 11:00:00 7,7 5,9 - - 0,0
14.02.2019 10:00:00 7,9 6,1 - - 0,0
14.02.2019 09:00:00 7,8 6,3 5,7 6,0 0,0
14.02.2019 08:00:00 7,9 6,3 - - 0,0
14.02.2019 07:00:00 7,9 6,2 - - 0,0
14.02.2019 06:00:00 8,2 6,6 - - 0,0
14.02.2019 05:00:00 8,1 6,4 - - 0,0
14.02.2019 04:00:00 8,2 6,2 - - 0,0
14.02.2019 03:00:00 8,2 6,4 - - 0,0
14.02.2019 02:00:00 8,0 6,5 - - 0,0
14.02.2019 01:00:00 7,9 6,2 - - 0,0
14.02.2019 00:00:00 8,3 6,5 - - 0,0
13.02.2019 23:00:00 8,2 6,4 - - 0,0
13.02.2019 22:00:00 8,2 6,5 - - 0,0
13.02.2019 21:00:00 8,1 6,5 - - 0,0
13.02.2019 20:00:00 8,2 6,6 - - 0,0
13.02.2019 19:00:00 8,1 6,5 - - 0,0
13.02.2019 18:00:00 8,6 6,2 - - 0,0
13.02.2019 17:00:00 8,6 6,4 - - 0,0
13.02.2019 16:00:00 8,9 6,4 - - 0,0
13.02.2019 15:00:00 9,2 6,4 - - 0,0
13.02.2019 14:00:00 9,5 6,5 - - 0,0
13.02.2019 13:00:00 9,2 6,5 - - 0,0
13.02.2019 12:00:00 8,9 6,8 - - 0,0
13.02.2019 11:00:00 8,7 6,9 - - 0,0
13.02.2019 10:00:00 8,3 7,0 - - 0,0
13.02.2019 09:00:00 8,2 6,8 5,0 5,9 0,0
13.02.2019 08:00:00 8,3 6,7 - - 0,0
13.02.2019 07:00:00 8,4 7,5 - - 0,0
13.02.2019 06:00:00 8,3 7,8 - - 0,0
13.02.2019 05:00:00 8,3 7,7 - - 0,2
13.02.2019 04:00:00 8,3 7,9 - - 0,0
13.02.2019 03:00:00 8,5 8,1 - - 0,0
13.02.2019 02:00:00 8,3 7,9 - - 0,6
13.02.2019 01:00:00 8,4 8,0 - - 0,0
13.02.2019 00:00:00 8,4 7,7 - - 0,0
12.02.2019 23:00:00 8,8 8,2 - - 0,0
12.02.2019 22:00:00 8,8 8,4 - - 0,0
12.02.2019 21:00:00 8,5 8,1 - - 0,0
12.02.2019 20:00:00 8,5 8,1 - - 0,0
12.02.2019 19:00:00 8,5 8,0 - - 0,0
12.02.2019 18:00:00 8,7 7,9 - - 0,0
12.02.2019 17:00:00 9,4 8,2 - - 0,0
12.02.2019 16:00:00 9,4 8,2 - - 0,0
12.02.2019 15:00:00 9,2 8,1 - - 0,0
12.02.2019 14:00:00 8,9 7,7 - - 0,0
12.02.2019 13:00:00 8,7 7,4 - - 0,0
12.02.2019 12:00:00 9,4 7,6 - - 0,0
12.02.2019 11:00:00 9,8 8,2 - - 0,0
12.02.2019 10:00:00 8,4 7,1 - - 0,0
12.02.2019 09:00:00 8,0 7,0 4,5 6,0 0,2
12.02.2019 08:00:00 7,5 7,0 - - 0,8
12.02.2019 07:00:00 7,5 6,8 - - 0,4
12.02.2019 06:00:00 7,4 6,3 - - 0,0
12.02.2019 05:00:00 6,8 5,7 - - 0,0
12.02.2019 04:00:00 6,4 5,3 - - 0,0
12.02.2019 03:00:00 6,4 5,7 - - 0,0
12.02.2019 02:00:00 6,6 6,0 - - 0,0
12.02.2019 01:00:00 6,2 5,4 - - 0,0
12.02.2019 00:00:00 6,0 5,2 - - 0,0
11.02.2019 23:00:00 5,7 4,7 - - 0,0
11.02.2019 22:00:00 5,0 4,3 - - 0,0
11.02.2019 21:00:00 4,7 4,4 - - 0,0
11.02.2019 20:00:00 2,5 2,1 - - 0,0
11.02.2019 19:00:00 2,1 1,5 - - 0,0
11.02.2019 18:00:00 2,9 1,6 - - 0,0
11.02.2019 17:00:00 4,3 2,0 - - 0,0
11.02.2019 16:00:00 6,6 2,1 - - 0,0
11.02.2019 15:00:00 7,6 2,2 - - 0,0
11.02.2019 14:00:00 7,7 1,6 - - 0,0
11.02.2019 13:00:00 7,1 1,9 - - 0,0
11.02.2019 12:00:00 6,0 2,1 - - 0,0
11.02.2019 11:00:00 4,1 2,9 - - 0,2
11.02.2019 10:00:00 1,9 1,7 - - 0,0
11.02.2019 09:00:00 0,1 -0,3 4,7 6,0 0,0
11.02.2019 08:00:00 0,5 0,2 - - 0,0
11.02.2019 07:00:00 -0,2 -0,8 - - 0,0
11.02.2019 06:00:00 1,7 1,4 - - 0,0
11.02.2019 05:00:00 1,9 1,3 - - 0,0
11.02.2019 04:00:00 2,1 1,8 - - 0,0
11.02.2019 03:00:00 0,7 0,4 - - 0,0
11.02.2019 02:00:00 0,9 0,5 - - 0,0
11.02.2019 01:00:00 0,4 0,0 - - 0,0
11.02.2019 00:00:00 0,8 0,4 - - 0,0
10.02.2019 23:00:00 1,7 1,4 - - 0,0
10.02.2019 22:00:00 2,3 2,0 - - 0,0
10.02.2019 21:00:00 1,4 0,7 - - 0,0
10.02.2019 20:00:00 3,0 2,0 - - 0,0
10.02.2019 19:00:00 3,9 3,0 - - 0,0
10.02.2019 18:00:00 3,9 3,0 - - 0,0
10.02.2019 17:00:00 4,3 2,2 - - 0,0
10.02.2019 16:00:00 5,6 1,3 - - 0,0
10.02.2019 15:00:00 6,7 1,5 - - 0,0
10.02.2019 14:00:00 6,1 0,5 - - 0,0
10.02.2019 13:00:00 6,4 1,6 - - 0,0
10.02.2019 12:00:00 6,4 1,6 - - 0,0
10.02.2019 11:00:00 5,5 2,6 - - 0,0
10.02.2019 10:00:00 4,1 3,0 - - 0,0
10.02.2019 09:00:00 1,9 1,5 5,0 5,7 0,0
10.02.2019 08:00:00 1,8 1,5 - - 0,0
10.02.2019 07:00:00 2,0 1,5 - - 0,0
10.02.2019 06:00:00 2,5 2,0 - - 0,0

tt = Temperatura
td = dewpoint
tt -20cm = Temperatura -20cm
tt -100cm = Temperatura -100cm
rr = precipitazioni

Stazioni seguenti

WeatherPro
AMSI
MeteoEarth